Location: Crocus Hill
(18.2167°N, 63.0667°W)
Time: 03:34:55
(UTC+00:00)

Cosmos 2322 Rocket - Pass Details

Date: 26 January 2020
Orbit: 831 x 852 km, 71.0° (Epoch: 16 February)

Event Time Altitude Azimuth Distance (km) Brightness Sun altitude
Rises 09:02:04 0° 204° (SSW) 3,373 5.2 -24.7°
Reaches altitude 10° 09:04:31 10° 207° (SSW) 2,444 4.4 -24.1°
Maximum altitude 09:10:03 62° 288° (WNW) 944 2.1 -22.9°
Drops below altitude 10° 09:15:38 10° 8° (N) 2,463 4.6 -21.6°
Sets 09:18:08 0° 12° (NNE) 3,402 5.3 -21.0°
